{"data":{"norad_id":66308,"intl_designator":"2025-248R","name":"TOMORROW-S8","alt_names":[],"object_type":"PAYLOAD","status":"ACTIVE","operator":null,"country":"US","launch_date":"2025-11-02","launch_site_code":"AFETR","launch_vehicle":null,"mission":null,"orbit_class":"UNKNOWN","rcs_meters":null,"size_class":null,"mass_kg":null,"dimensions":null,"purposes":[],"wikipedia_slug":null,"has_3d_model":false,"image_url":null,"decayed_at":null,"tle_current":{"epoch":"2026-09-20T11:28:06.587328Z","epoch_age_seconds":133309,"freshness":"FRESH","line1":"1 66308U 25248R   26263.47785402  .00002290  00000+0  11333-3 0  9996","line2":"2 66308  45.3994 329.9452 0004950 222.7714 137.2788 15.21211519 49025","mean_motion":15.21211519,"eccentricity":0.000495,"inclination_deg":45.3994,"raan_deg":329.9452,"arg_perigee_deg":222.7714,"mean_anomaly_deg":137.2788,"bstar":0.00011333,"rev_number":4902,"period_min":94.661392055893,"perigee_km":498.77935690889,"apogee_km":505.59087580408,"semimajor_km":6880.3221163565,"source":"CELESTRAK","updated_at":"2026-09-21T09:00:15.905089Z"}}}